This demonstration page uses our WeatherBlox Daily Observations layout. Learn more.

36.17497, -115.13722

Hourly Observations for May 18, 2015

Temp ( °F °C ) Dew Point ( °F °C ) Humidity (%) Winds ( mph kmh ) Pressure ( in mb ) Visibility ( mi km ) Precip ( " mm )
12:53 am 00:53 Clear 72 22.2 32 0 23 23 S 8 13 29.89 1012 10 16.0934 0 0
1:53 am 01:53 Partly Cloudy 72 22.2 33 0.6 24 24 S 7 11 29.88 1012 10 16.0934 0 0
2:53 am 02:53 Mostly Clear 71 21.7 33 0.6 25 25 SW 5 7 29.88 1012 10 16.0934 0 0
3:53 am 03:53 Clear 68 20 33 0.6 27 27 ESE 8 13 29.88 1012 10 16.0934 0 0
4:53 am 04:53 Clear 68 20 34 1.1 28 28 SSE 6 9 29.87 1012 10 16.0934 0 0
5:53 am 05:53 Sunny 67 19.4 35 1.7 31 31 S 6 9 29.88 1012 10 16.0934 0 0
6:53 am 06:53 Cloudy 67 19.4 36 2.2 32 32 S 7 11 29.9 1012 10 16.0934 0 0
7:53 am 07:53 Cloudy 67 19.4 42 5.6 41 41 NW 3 6 29.9 1013 10 16.0934 0 0.0254
8:53 am 08:53 Cloudy 67 19.4 44 6.7 44 44 NW 9 15 29.9 1013 10 16.0934 0 0
9:53 am 09:53 Mostly Cloudy 66 18.9 43 6.1 43 43 N 17 28 29.91 1013 10 16.0934 0 0
10:53 am 10:53 Mostly Cloudy 63 17.2 44 6.7 50 50 NNW 18 30 29.93 1014 10 16.0934 0 0
11:53 am 11:53 Mostly Cloudy 62 16.7 44 6.7 52 52 NNW 24 39 29.94 1014 10 16.0934 0 0
12:53 pm 12:53 Cloudy with Light Rain 60 15.6 47 8.3 62 62 NNW 14 22 29.97 1015 10 16.0934 0 0.0254
1:53 pm 13:53 Cloudy 61 16.1 46 7.8 58 58 NE 15 24 29.95 1014 10 16.0934 0 0.0254
2:53 pm 14:53 Mostly Cloudy 65 18.3 44 6.7 47 47 NNW 5 7 29.95 1014 10 16.0934 0 0
3:53 pm 15:53 Mostly Sunny 68 20 39 3.9 35 35 Calm 29.93 1013 10 16.0934 0 0
4:53 pm 16:53 Sunny 69 20.6 38 3.3 32 32 NW 5 7 29.92 1013 10 16.0934 0 0
5:53 pm 17:53 Mostly Sunny 68 20 37 2.8 32 32 Calm 29.92 1013 10 16.0934 0 0
6:53 pm 18:53 Cloudy 69 20.6 37 2.8 31 31 E 8 13 29.91 1013 10 16.0934 0 0
7:53 pm 19:53 Clear 65 18.3 39 3.9 39 39 E 7 11 29.93 1014 10 16.0934 0 0
8:53 pm 20:53 Clear 63 17.2 43 6.1 48 48 ENE 6 9 29.95 1014 10 16.0934 0 0
9:53 pm 21:53 Clear 64 17.8 43 6.1 46 46 Calm 29.96 1015 10 16.0934 0 0
10:53 pm 22:53 Clear 63 17.2 42 5.6 47 47 Calm 29.96 1015 10 16.0934 0 0
11:53 pm 23:53 Clear 61 16.1 43 6.1 52 52 W 5 7 29.97 1015 10 16.0934 0 0

Powered by AerisWeather